カタログに戻る

STARLINK-11597

運用中通信VLEO
NORAD 63115·PAYLOAD·🇺🇸 United States

打ち上げ Feb 27, 2025 から Cape Canaveral Space Force Station

Loading…

次のパス (今後24時間)

TLE

最新Source: CelesTrak SupGP

元期: Sep 15, 2026, 03:20 UTC

1 63115C 25039M   26258.13937500 -.00007840  00000+0 -60918-4 0  2582
2 63115  43.0005 174.5913 0001507 264.8599 125.1205 15.70833037    10

AllMySatでSTARLINK-11597をリアルタイム追跡

Download on the App Store